Girona, Spain

4:27 PM CET on March 23, 2017 (GMT +0100)
Girona

Weather History for LEGE - May, 2013

Change the Weather History Date:

Wednesday, May 22, 2013

  Actual Average Record
Temperature  
Mean Temperature 60 °F -  
Max Temperature 74 °F 79 °F 87 °F (2006)
Min Temperature 47 °F 56 °F 46 °F (2015)
Degree Days  
Heating Degree Days 4    
Growing Degree Days 10 (Base 50)    
Moisture  
Dew Point 51 °F    
Average Humidity 71    
Maximum Humidity 100    
Minimum Humidity 33    
Precipitation  
Precipitation 0.00 in 0.09 in - ()
Sea Level Pressure  
Sea Level Pressure 29.86 in    
Wind  
Wind Speed 2 mph ()    
Max Wind Speed 13 mph    
Max Gust Speed 16 mph    
Visibility 6.8 miles    
Events      
Averages and records for this station are not official NWS values.
T = Trace of Precipitation, MM = Missing Value Source: Averaged Metar Reports

Daily Weather History Graph

Daily Weather History Graph

Search for Another Location

Airport or City:

Trip Planner

Search our weather history database for the weather conditions in past years. The results will help you decide how hot, cold, wet, or windy it might be!

Date:

Astronomy

May. 22, 2013 Rise Set
Actual Time 6:22 AM CEST 9:09 PM CEST
Civil Twilight 5:49 AM CEST 9:41 PM CEST
Nautical Twilight 5:08 AM CEST 10:23 PM CEST
Astronomical Twilight 4:21 AM CEST 11:10 PM CEST
Moon 6:11 PM CEST (5/22) 4:19 AM CEST (5/22)
Length of Visible Light 15h 52m
Length of Day
14h 46m
Waxing Gibbous, 89% of the Moon is Illuminated
May 22
Waxing Gibbous
May 25
Full
May 31
Last Quarter
Jun 8
New
Jun 16
First Quarter

Hourly Weather History & Observations

Time (CEST) Temp. Dew Point Humidity Pressure Visibility Wind Dir Wind Speed Gust Speed Precip Events Conditions
12:00 AM 53.6 °F 51.8 °F 94% 29.95 in 6.2 mi Variable 1.2 mph - N/A   Mostly Cloudy
12:30 AM 53.6 °F 51.8 °F 94% 29.95 in 6.2 mi Calm Calm - N/A   Mostly Cloudy
1:00 AM 53.6 °F 51.8 °F 94% 29.95 in 6.2 mi Variable 1.2 mph - N/A   Mostly Cloudy
1:30 AM 53.6 °F 51.8 °F 94% 29.92 in 6.2 mi Variable 2.3 mph - N/A   Mostly Cloudy
2:00 AM 53 °F 50 °F 87% 29.91 in 12 mi Calm Calm - -   Scattered Clouds
2:00 AM 53.6 °F 51.8 °F 94% 29.92 in 6.2 mi Calm Calm - N/A   Mostly Cloudy
2:30 AM 53.6 °F 51.8 °F 94% 29.92 in 6.2 mi Calm Calm - N/A   Mostly Cloudy
3:30 AM 53.6 °F 51.8 °F 94% 29.89 in 6.2 mi Calm Calm - N/A   Mostly Cloudy
4:30 AM 51.8 °F 50.0 °F 94% 29.86 in 6.2 mi Calm Calm - N/A   Scattered Clouds
5:00 AM 50.0 °F 48.2 °F 94% 29.86 in 6.2 mi Calm Calm - N/A   Scattered Clouds
5:30 AM 50.0 °F 50.0 °F 100% 29.86 in 6.2 mi Calm Calm - N/A   Scattered Clouds
6:00 AM 48.2 °F 48.2 °F 100% 29.86 in 6.2 mi Variable 1.2 mph - N/A   Scattered Clouds
6:30 AM 48.2 °F 48.2 °F 100% 29.86 in 6.2 mi Calm Calm - N/A   Scattered Clouds
7:00 AM 48.2 °F 48.2 °F 100% 29.86 in 6.2 mi Variable 1.2 mph - N/A   Partly Cloudy
7:30 AM 50.0 °F 50.0 °F 100% 29.86 in 6.2 mi Calm Calm - N/A   Partly Cloudy
8:00 AM 55 °F 51 °F 82% 29.86 in 16 mi Calm Calm - -   Scattered Clouds
8:00 AM 53.6 °F 51.8 °F 94% 29.86 in 6.2 mi Calm Calm - N/A   Partly Cloudy
8:30 AM 53.6 °F 51.8 °F 94% 29.86 in 6.2 mi Variable 1.2 mph - N/A   Partly Cloudy
9:00 AM 59.0 °F 51.8 °F 77% 29.86 in 6.2 mi Calm Calm - N/A   Partly Cloudy
9:30 AM 60.8 °F 51.8 °F 72% 29.86 in 6.2 mi Variable 2.3 mph - N/A   Partly Cloudy
10:00 AM 62.6 °F 50.0 °F 63% 29.86 in 6.2 mi Variable 3.5 mph - N/A   Partly Cloudy
10:30 AM 64.4 °F 53.6 °F 68% 29.86 in 6.2 mi SW 1.2 mph - N/A   Partly Cloudy
11:00 AM 66.2 °F 53.6 °F 64% 29.86 in 6.2 mi SSW 3.5 mph - N/A   Scattered Clouds
11:30 AM 68.0 °F 53.6 °F 60% 29.86 in 6.2 mi SW 3.5 mph - N/A   Scattered Clouds
12:00 PM 69.8 °F 50.0 °F 49% 29.86 in 6.2 mi West 2.3 mph - N/A   Scattered Clouds
12:30 PM 71.6 °F 51.8 °F 50% 29.86 in 6.2 mi ENE 4.6 mph 16.1 mph N/A   Scattered Clouds
1:00 PM 71.6 °F 50.0 °F 46% 29.86 in 6.2 mi NW 2.3 mph - N/A   Scattered Clouds
1:30 PM 71.6 °F 50.0 °F 46% 29.86 in 6.2 mi ESE 4.6 mph - N/A   Scattered Clouds
2:00 PM 73 °F 50 °F 33% 29.81 in 25 mi East 5.8 mph - -   Mostly Cloudy
2:00 PM 73.4 °F 51.8 °F 47% 29.83 in 6.2 mi ESE 2.3 mph - N/A   Mostly Cloudy
2:30 PM 73.4 °F 50.0 °F 44% 29.83 in 6.2 mi South 2.3 mph - N/A   Scattered Clouds
3:00 PM 73.4 °F 50.0 °F 44% 29.83 in 6.2 mi South 6.9 mph - N/A   Scattered Clouds
3:30 PM 73.4 °F 51.8 °F 47% 29.83 in 6.2 mi South 12.7 mph - N/A   Mostly Cloudy
4:00 PM 73.4 °F 51.8 °F 47% 29.83 in 6.2 mi South 11.5 mph - N/A   Mostly Cloudy
4:30 PM 71.6 °F 50.0 °F 46% 29.83 in 6.2 mi SSW 11.5 mph - N/A   Mostly Cloudy
5:00 PM 71.6 °F 51.8 °F 50% 29.83 in 6.2 mi SSW 12.7 mph - N/A   Scattered Clouds
5:30 PM 71.6 °F 50.0 °F 46% 29.83 in 6.2 mi SSW 10.4 mph - N/A   Scattered Clouds
6:00 PM 71.6 °F 50.0 °F 46% 29.83 in 6.2 mi SSW 11.5 mph - N/A   Scattered Clouds
6:30 PM 68.0 °F 50.0 °F 52% 29.83 in 6.2 mi SW 9.2 mph - N/A   Scattered Clouds
7:00 PM 68.0 °F 50.0 °F 52% 29.83 in 6.2 mi SW 8.1 mph - N/A   Scattered Clouds
7:30 PM 66.2 °F 50.0 °F 56% 29.83 in 6.2 mi SW 5.8 mph - N/A   Partly Cloudy
8:00 PM 63 °F 49 °F 51% 29.82 in 19 mi WSW 4.6 mph - -   Partly Cloudy
8:00 PM 64.4 °F 50.0 °F 59% 29.83 in 6.2 mi SW 4.6 mph - N/A   Partly Cloudy
8:30 PM 62.6 °F 51.8 °F 68% 29.83 in 6.2 mi WSW 3.5 mph - N/A   Partly Cloudy
9:00 PM 62.6 °F 51.8 °F 68% 29.83 in 6.2 mi SW 3.5 mph - N/A   Partly Cloudy
9:30 PM 60.8 °F 50.0 °F 68% 29.86 in 6.2 mi SW 3.5 mph - N/A   Partly Cloudy
10:00 PM 59.0 °F 51.8 °F 77% 29.86 in 6.2 mi Variable 1.2 mph - N/A   Partly Cloudy
10:30 PM 59.0 °F 50.0 °F 72% 29.89 in 6.2 mi Calm Calm - N/A   Partly Cloudy
11:00 PM 57.2 °F 51.8 °F 82% 29.89 in 6.2 mi Calm Calm - N/A   Partly Cloudy
11:30 PM 57.2 °F 51.8 °F 82% 29.89 in 6.2 mi Calm Calm - N/A   Partly Cloudy